CZ-6A DEB, 60974

Orbit data source: Space-Track

CZ-6A DEB, 60974 is space debris in LEO originally from a launch on Tue, 06 Aug 2024 UTC launched from the Taiyaun Space Center, China (TSC). Debris objects in space refer to the collection of defunct objects orbiting the Earth. Examples of debris include non-operational satellites, rocket bodies, and fragments generated from explosions, collisions, or faulty payload assembly.

Loading next visibility...
Identifier
60974, 2024-140LZ
Orbit
LEO
Country
Flag of CNCN / PRC
Related business
Manufacturer
SAST
Mission
Spacecraft
Bus & Motor
Unknown
Mass
Unknown
Launch date (UTC)
2024-08-06 (2 years ago)
Launch vehicle
Unknown
Launch site
Taiyaun Space Center, China (TSC)
Object type
Payload
Rocket body
Debris
Shape & HBR
Unknown shape, 0.1 m
Radar Cross Section
Medium (>0.1 m² and <1 m²)

Expand to show TLE details & history
Last TLE update: 16 hours ago

TLE from 16 hours ago
0 CZ-6A DEB
1 60974U 24140LZ  26171.17332223  .00000928  00000-0  26533-3 0  9998
2 60974  88.7374 249.6241 0068913 331.8115  27.9364 14.42945621 96725
Epoch: 2026-06-20T04:09Z
TLE epoch observation values (Epoch: 2026-06-20T04:09:35.040Z)
Latitude
0.00002°
Longitude
-81.16365°
Altitude
708.543 km
Speed
7.524 km/s
True Right ascension
16h 38m 29s
True Declination
0° 00' 00"
Sunlit
Object was in full shadow at epoch
Visualization orbit readout
Latitude
Unknown
Longitude
Unknown
Altitude
Unknown
Speed
Unknown
Apparent Right ascension
Unknown
Apparent Declination
Unknown
Sunlit
N/A
Visualization observer readout
Local Sidereal Time
07:19:40
Azimuth
Unknown
Elevation
Unknown
Doppler factor
Unknown
Orbital elements
Apogee altitude
794.795 km
Perigee altitude
696.61 km
Semi-major axis
7,123.84 km
Eccentricity
0.00689
Inclination
88.7374°
RAAN
249.6241°
Arg. of periapsis
331.8115°
True anomaly
28.30919°
Mean anomaly
27.9364°
Eccentric anomaly
28.12251°
Mean motion
3.60971 °/min
Orbital period
99.73 mins
BSTAR
0.00026533
Loading maneuver chart data...
Computing Atmospheric mass density...
Loading historical data...
Loading historical data...
Loading historical data...
Loading historical data...
Loading historical data...
Loading historical data...
Loading historical data...

Documentation

Showing up to 5 results
|